Flag for Germany Weather past 2 weeks in Grevenbroich, North Rhine-Westphalia, Germany

Now
68 °F

Scattered showers. Passing clouds.


Feels Like: 68 °F
Forecast: 62 / 77 °F
Wind: 5 mph from East

Location: Monchengladbach Airport

Current Time: Sep 18, 2014 at 8:39:50 PM

Latest Report: Sep 18, 2014 at 7:50 PM


Visibility: 5 mi

Pressure: 29.80 "Hg

Humidity: 88%

Dew point: 64 °F

Location of GrevenbroichLocation

Historic Weather in Grevenbroich — Graph

°F

Grevenbroich temperature yesterday

Maximum temperature yesterday: 77 °F (at 3:20 PM)
Minimum temperature yesterday: 54 °F (at 7:50 AM)
Average temperature yesterday: 70 °F

Past Weeks' High & Low Weather Summary

 TemperatureHumidityPressure
High77 °F (Sep 5, 4:50 PM)100% (Sep 5, 8:20 AM)30.24 "Hg (Sep 5, 8:20 AM)
Low48 °F (Sep 12, 7:50 AM)47% (Sep 17, 5:50 PM)29.83 "Hg (Sep 18, 7:50 AM)
Average66 °F75%30.03 "Hg
* Reported Sep 3 7:20 PM — Sep 18 7:20 PM, Grevenbroich, Weather by CustomWeather, © 2014

Note: Actual official high and low records may vary slightly from our data, if they occured in-between our weather recording intervals... More about our weather records

Advertising

Grevenbroich weather history for previous 24 hours

 ConditionsComfort  
Time TempWeatherWind HumidityBarometerVisibility
7:20 PM
Sep 18
68 °FScattered showers. Passing clouds.5 mph88%29.83 "HgN/A
6:50 PM68 °FScattered showers. Passing clouds.5 mph88%29.83 "HgN/A
6:20 PM70 °FScattered showers. Passing clouds.5 mph83%29.83 "Hg6 mi
5:50 PM70 °FClear.5 mph88%29.83 "Hg10 mi
5:20 PM70 °FClear.7 mph83%29.83 "Hg5 mi
4:50 PM70 °FPassing clouds.6 mph83%29.83 "HgN/A
4:20 PM68 °FPassing clouds.5 mph88%29.83 "Hg5 mi
3:50 PM66 °FRain. Passing clouds.5 mph94%29.83 "Hg4 mi
3:20 PM68 °FPassing clouds.6 mph88%29.83 "HgN/A
2:50 PM70 °FPassing clouds.5 mph83%29.83 "HgN/A
2:20 PM68 °FClear.2 mph88%29.86 "Hg10 mi
1:50 PM68 °FClear.6 mph88%29.86 "Hg10 mi
1:20 PM66 °FPartly cloudy.7 mph94%29.86 "Hg5 mi
12:50 PM66 °FPassing clouds.6 mph88%29.86 "HgN/A
12:20 PM66 °FPassing clouds.5 mph88%29.86 "HgN/A
11:50 AM64 °FPassing clouds.5 mph88%29.86 "HgN/A
11:20 AM64 °FSunny.5 mph88%29.86 "Hg10 mi
10:50 AM64 °FPartly sunny.5 mph88%29.86 "HgN/A
10:20 AM63 °FLight rain. Partly sunny.5 mph94%29.86 "HgN/A
9:50 AM63 °FLight rain. Scattered clouds.6 mph88%29.83 "HgN/A
9:20 AM63 °FScattered clouds.5 mph88%29.83 "HgN/A
8:50 AM61 °FSunny.3 mph94%29.83 "Hg10 mi
8:20 AM61 °FSunny.3 mph94%29.83 "Hg10 mi
7:50 AM61 °FSunny.3 mph88%29.83 "Hg10 mi
8:20 PM
Sep 17
63 °FClear.3 mph88%29.86 "Hg10 mi
Weather by CustomWeather, © 2014

See weather overviewHow to use our weather pages